Meteo

Meteo


Dettagli e Storico

Webcam

Webcam in aeroporto – Aggiornata ogni minuto
Osservatorio Meteorologico Cocomaro di Cona – Ferrara

NOAA IMAGE

NOAA

Windy

METAR

Aviation Digital Data Service (ADDS)

Output produced by METARs form (2038 UTC 26 January 2021)
found at http://www.aviationweather.gov/metar/data/
 
METAR text: LIPF 261755Z /////KT CAVOK 04/M04 Q1016
Conditions at: LIPF (FERRARA (AUT) , IT) observed 1755 UTC 26 January 2021
Temperature: 4.0°C (39°F)
Dewpoint: -4.0°C (25°F) [RH = 56%]
Pressure (altimeter): 30.00 inches Hg (1016.0 mb)
Winds: missing
Visibility: 6 or more miles (10+ km)
Ceiling: ceiling and visibility are OK
Clouds: unknown
Weather: no significant weather observed at this time

METAR text: LIPE 262020Z 23007KT CAVOK 04/M09 Q1017
Conditions at: LIPE (BOLOGNA/BORGO (A, IT) observed 2020 UTC 26 January 2021
Temperature: 4.0°C (39°F)
Dewpoint: -9.0°C (16°F) [RH = 38%]
Pressure (altimeter): 30.03 inches Hg (1017.0 mb)
Winds: from the SW (230 degrees) at 8 MPH (7 knots; 3.6 m/s)
Visibility: 6 or more miles (10+ km)
Ceiling: ceiling and visibility are OK
Clouds: unknown
Weather: no significant weather observed at this time

Forecast for: LIPE (BOLOGNA/BORGO (A, IT)
Text: TAF LIPE 261700Z 2618/2718 28006KT CAVOK
Forecast period: 1800 UTC 26 January 2021 to 1800 UTC 27 January 2021
Forecast type: FROM: standard forecast or significant change
Winds: from the W (280 degrees) at 7 MPH (6 knots; 3.1 m/s)
Visibility: 6 or more miles (10+ km)
Ceiling: unknown
Clouds: missing
Weather: NSW  (no significant weather)

METAR text: LIPX 262020Z 34007KT CAVOK 03/M11 Q1017
Conditions at: LIPX (VILLAFRANCA(CV/M, IT) observed 2020 UTC 26 January 2021
Temperature: 3.0°C (37°F)
Dewpoint: -11.0°C (12°F) [RH = 35%]
Pressure (altimeter): 30.03 inches Hg (1017.0 mb)
Winds: from the NNW (340 degrees) at 8 MPH (7 knots; 3.6 m/s)
Visibility: 6 or more miles (10+ km)
Ceiling: ceiling and visibility are OK
Clouds: unknown
Weather: no significant weather observed at this time

Forecast for: LIPX (VILLAFRANCA(CV/M, IT)
Text: TAF LIPX 262000Z 2621/2706 VRB05KT CAVOK
Forecast period: 2100 UTC 26 January 2021 to 0600 UTC 27 January 2021
Forecast type: FROM: standard forecast or significant change
Winds: variable direction winds at 6 MPH (5 knots; 2.6 m/s)
Visibility: 6 or more miles (10+ km)
Ceiling: unknown
Clouds: missing
Weather: NSW  (no significant weather)

METAR text: LIPZ 262020Z 31004KT CAVOK 02/M03 Q1016 NOSIG
Conditions at: LIPZ (VENEZIA/TESSERA , IT) observed 2020 UTC 26 January 2021
Temperature: 2.0°C (36°F)
Dewpoint: -3.0°C (27°F) [RH = 69%]
Pressure (altimeter): 30.00 inches Hg (1016.0 mb)
Winds: from the NW (310 degrees) at 5 MPH (4 knots; 2.1 m/s)
Visibility: 6 or more miles (10+ km)
Ceiling: ceiling and visibility are OK
Clouds: unknown
Weather: no significant weather observed at this time

Forecast for: LIPZ (VENEZIA/TESSERA , IT)
Text: TAF LIPZ 261700Z 2618/2724 29007KT CAVOK
Forecast period: 1800 UTC 26 January 2021 to 0000 UTC 28 January 2021
Forecast type: FROM: standard forecast or significant change
Winds: from the WNW (290 degrees) at 8 MPH (7 knots; 3.6 m/s)
Visibility: 6 or more miles (10+ km)
Ceiling: unknown
Clouds: missing
Weather: NSW  (no significant weather)